sat.trackr.live / text

‹ back to catalog

STARLINK-2105

NORAD 47385 · 2021-005AN

PAYLOAD ACTIVE UNKNOWN

§ Identity

Operator
Country
US
Launch date
2021-01-20
Launch site
AFETR
Launch vehicle
Mass (kg)
RCS (m²)

Purposes: comms

External: N2YO · Heavens-Above · Gunter

§ Orbital elements

Epoch: 2026-09-09T07:29:44.225088Z

Period
94.01 min
Inclination
53.1604°
Eccentricity
0.0002558
Mean motion
15.31703717 rev/d
Perigee alt
469.0 km
Apogee alt
472.5 km
Semi-major
6,848.9 km
B*
-4.1961e-6
RAAN
262.5650°
Arg perigee
92.2317°
Mean anomaly
267.8978°
Rev number
31,151

§ Raw data

STARLINK-21051 47385U 21005AN  26252.31231742 -.00000496  00000+0 -41961-5 0  99912 47385  53.1604 262.5650 0002558  92.2317 267.8978 15.31703717311511

JSON: /api/v1/satellites/47385 · /tle

For live sub-satellite position, see the globe view (requires WebGL).

§ Visibility from observer

Set your observer location to see the next 7 days of passes ≥ 10°. The values pass through the URL so the page stays shareable.

No JS? Fill the form by hand. The geolocation button needs JavaScript.